Time,TemperatureF,DewpointF,PressureIn,WindDirection,WindDirectionDegrees,WindSpeedMPH,WindSpeedGustMPH,Humidity,HourlyPrecipIn,Conditions,Clouds,dailyrainin,SoftwareType,DateUTC
2013-10-20 00:09:00,-999.0,-99.9,-100.00,WNW,288,3.4,4.5,-999,-99.99,,,-99.99,HOBO +U30 +Weather +,2013-10-20 05:09:00,
2013-10-20 00:19:00,-999.0,-99.9,-100.00,West,279,5.6,7.4,-999,-99.99,,,-99.99,HOBO +U30 +Weather +,2013-10-20 05:19:00,
2013-10-20 00:29:00,-999.0,-99.9,-100.00,WNW,286,3.4,4.5,-999,-99.99,,,-99.99,HOBO +U30 +Weather +,2013-10-20 05:29:00,
2013-10-20 00:30:00,-999.0,-99.9,-100.00,WNW,288,2.2,4.0,-999,-99.99,,,-99.99,HOBO +U30 +Weather +,2013-10-20 05:30:00,
2013-10-20 00:40:00,-999.0,-99.9,-100.00,WNW,284,2.9,4.0,-999,-99.99,,,-99.99,HOBO +U30 +Weather +,2013-10-20 05:40:00,
2013-10-20 00:41:00,-999.0,-99.9,-100.00,WNW,298,1.1,3.4,-999,-99.99,,,-99.99,HOBO +U30 +Weather +,2013-10-20 05:41:00,
2013-10-20 00:51:00,-999.0,-99.9,-100.00,WNW,298,0.0,0.7,-999,-99.99,,,-99.99,HOBO +U30 +Weather +,2013-10-20 05:51:00,
2013-10-20 00:52:00,-999.0,-99.9,-100.00,WNW,298,0.0,1.1,-999,-99.99,,,-99.99,HOBO +U30 +Weather +,2013-10-20 05:52:00,
2013-10-20 01:01:00,-999.0,-99.9,-100.00,West,263,0.0,1.1,-999,-99.99,,,-99.99,HOBO +U30 +Weather +,2013-10-20 06:01:00,
2013-10-20 01:02:00,-999.0,-99.9,-100.00,WNW,298,0.0,0.0,-999,-99.99,,,-99.99,HOBO +U30 +Weather +,2013-10-20 06:02:00,
2013-10-20 01:12:00,-999.0,-99.9,-100.00,West,263,0.0,0.0,-999,-99.99,,,-99.99,HOBO +U30 +Weather +,2013-10-20 06:12:00,
2013-10-20 01:22:00,-999.0,-99.9,-100.00,WSW,241,0.0,1.8,-999,-99.99,,,-99.99,HOBO +U30 +Weather +,2013-10-20 06:22:00,
2013-10-20 01:23:00,-999.0,-99.9,-100.00,WSW,246,0.7,2.9,-999,-99.99,,,-99.99,HOBO +U30 +Weather +,2013-10-20 06:23:00,
2013-10-20 01:33:00,-999.0,-99.9,-100.00,WSW,246,1.1,2.9,-999,-99.99,,,-99.99,HOBO +U30 +Weather +,2013-10-20 06:33:00,
2013-10-20 01:34:00,-999.0,-99.9,-100.00,WSW,247,0.7,1.8,-999,-99.99,,,-99.99,HOBO +U30 +Weather +,2013-10-20 06:34:00,
2013-10-20 01:44:00,-999.0,-99.9,-100.00,WSW,247,0.0,1.1,-999,-99.99,,,-99.99,HOBO +U30 +Weather +,2013-10-20 06:44:00,
2013-10-20 01:45:00,-999.0,-99.9,-100.00,WSW,247,0.0,0.0,-999,-99.99,,,-99.99,HOBO +U30 +Weather +,2013-10-20 06:45:00,
2013-10-20 01:46:00,-999.0,-99.9,-100.00,WSW,250,0.0,1.8,-999,-99.99,,,-99.99,HOBO +U30 +Weather +,2013-10-20 06:46:00,
2013-10-20 01:55:00,-999.0,-99.9,-100.00,WSW,251,0.0,0.0,-999,-99.99,,,-99.99,HOBO +U30 +Weather +,2013-10-20 06:55:00,
2013-10-20 01:56:00,-999.0,-99.9,-100.00,WSW,251,0.0,1.1,-999,-99.99,,,-99.99,HOBO +U30 +Weather +,2013-10-20 06:56:00,
2013-10-20 02:05:00,-999.0,-99.9,-100.00,WSW,251,0.0,0.0,-999,-99.99,,,-99.99,HOBO +U30 +Weather +,2013-10-20 07:05:00,
2013-10-20 02:06:00,-999.0,-99.9,-100.00,WSW,251,0.0,0.0,-999,-99.99,,,-99.99,HOBO +U30 +Weather +,2013-10-20 07:06:00,
2013-10-20 02:16:00,-999.0,-99.9,-100.00,WSW,251,0.0,0.0,-999,-99.99,,,-99.99,HOBO +U30 +Weather +,2013-10-20 07:16:00,
2013-10-20 02:17:00,-999.0,-99.9,-100.00,WSW,251,0.7,1.8,-999,-99.99,,,-99.99,HOBO +U30 +Weather +,2013-10-20 07:17:00,
2013-10-20 02:27:00,-999.0,-99.9,-100.00,WSW,251,0.7,2.2,-999,-99.99,,,-99.99,HOBO +U30 +Weather +,2013-10-20 07:27:00,
2013-10-20 02:28:00,-999.0,-99.9,-100.00,SW,229,0.0,1.8,-999,-99.99,,,-99.99,HOBO +U30 +Weather +,2013-10-20 07:28:00,
2013-10-20 02:38:00,-999.0,-99.9,-100.00,SW,229,0.7,1.8,-999,-99.99,,,-99.99,HOBO +U30 +Weather +,2013-10-20 07:38:00,
2013-10-20 02:48:00,-999.0,-99.9,-100.00,WSW,247,1.8,2.9,-999,-99.99,,,-99.99,HOBO +U30 +Weather +,2013-10-20 07:48:00,
2013-10-20 02:49:00,-999.0,-99.9,-100.00,WSW,253,1.8,2.9,-999,-99.99,,,-99.99,HOBO +U30 +Weather +,2013-10-20 07:49:00,
2013-10-20 02:59:00,-999.0,-99.9,-100.00,WSW,256,2.2,4.0,-999,-99.99,,,-99.99,HOBO +U30 +Weather +,2013-10-20 07:59:00,
2013-10-20 03:00:00,-999.0,-99.9,-100.00,WSW,244,0.7,2.2,-999,-99.99,,,-99.99,HOBO +U30 +Weather +,2013-10-20 08:00:00,
2013-10-20 03:10:00,-999.0,-99.9,-100.00,WSW,244,0.0,0.7,-999,-99.99,,,-99.99,HOBO +U30 +Weather +,2013-10-20 08:10:00,
2013-10-20 03:11:00,-999.0,-99.9,-100.00,SSW,201,0.7,1.8,-999,-99.99,,,-99.99,HOBO +U30 +Weather +,2013-10-20 08:11:00,
2013-10-20 03:21:00,-999.0,-99.9,-100.00,SSW,194,0.7,2.2,-999,-99.99,,,-99.99,HOBO +U30 +Weather +,2013-10-20 08:21:00,
2013-10-20 03:31:00,-999.0,-99.9,-100.00,SW,220,2.2,3.4,-999,-99.99,,,-99.99,HOBO +U30 +Weather +,2013-10-20 08:31:00,
2013-10-20 03:41:00,-999.0,-99.9,-100.00,South,190,0.7,2.2,-999,-99.99,,,-99.99,HOBO +U30 +Weather +,2013-10-20 08:41:00,
2013-10-20 03:51:00,-999.0,-99.9,-100.00,South,181,0.7,2.2,-999,-99.99,,,-99.99,HOBO +U30 +Weather +,2013-10-20 08:51:00,
2013-10-20 04:01:00,-999.0,-99.9,-100.00,SSW,198,0.7,1.8,-999,-99.99,,,-99.99,HOBO +U30 +Weather +,2013-10-20 09:01:00,
2013-10-20 04:02:00,-999.0,-99.9,-100.00,South,184,1.1,2.9,-999,-99.99,,,-99.99,HOBO +U30 +Weather +,2013-10-20 09:02:00,
2013-10-20 04:11:00,-999.0,-99.9,-100.00,South,177,0.7,2.9,-999,-99.99,,,-99.99,HOBO +U30 +Weather +,2013-10-20 09:11:00,
2013-10-20 04:12:00,-999.0,-99.9,-100.00,South,183,1.8,4.0,-999,-99.99,,,-99.99,HOBO +U30 +Weather +,2013-10-20 09:12:00,
2013-10-20 04:21:00,-999.0,-99.9,-100.00,South,177,0.7,1.8,-999,-99.99,,,-99.99,HOBO +U30 +Weather +,2013-10-20 09:21:00,
2013-10-20 04:31:00,-999.0,-99.9,-100.00,South,190,0.7,2.2,-999,-99.99,,,-99.99,HOBO +U30 +Weather +,2013-10-20 09:31:00,
2013-10-20 04:41:00,-999.0,-99.9,-100.00,South,184,0.0,1.8,-999,-99.99,,,-99.99,HOBO +U30 +Weather +,2013-10-20 09:41:00,
2013-10-20 04:51:00,-999.0,-99.9,-100.00,SSW,195,0.7,3.4,-999,-99.99,,,-99.99,HOBO +U30 +Weather +,2013-10-20 09:51:00,
2013-10-20 05:01:00,-999.0,-99.9,-100.00,SSW,192,0.7,2.2,-999,-99.99,,,-99.99,HOBO +U30 +Weather +,2013-10-20 10:01:00,
2013-10-20 05:02:00,-999.0,-99.9,-100.00,South,181,1.1,2.9,-999,-99.99,,,-99.99,HOBO +U30 +Weather +,2013-10-20 10:02:00,
2013-10-20 05:12:00,-999.0,-99.9,-100.00,South,178,1.1,2.9,-999,-99.99,,,-99.99,HOBO +U30 +Weather +,2013-10-20 10:12:00,
2013-10-20 05:22:00,-999.0,-99.9,-100.00,South,191,1.1,2.9,-999,-99.99,,,-99.99,HOBO +U30 +Weather +,2013-10-20 10:22:00,
2013-10-20 05:32:00,-999.0,-99.9,-100.00,South,185,0.7,2.2,-999,-99.99,,,-99.99,HOBO +U30 +Weather +,2013-10-20 10:32:00,
2013-10-20 05:42:00,-999.0,-99.9,-100.00,South,177,1.1,3.4,-999,-99.99,,,-99.99,HOBO +U30 +Weather +,2013-10-20 10:42:00,
2013-10-20 05:43:00,-999.0,-99.9,-100.00,South,190,0.7,2.9,-999,-99.99,,,-99.99,HOBO +U30 +Weather +,2013-10-20 10:43:00,
2013-10-20 05:53:00,-999.0,-99.9,-100.00,SSW,192,0.7,1.8,-999,-99.99,,,-99.99,HOBO +U30 +Weather +,2013-10-20 10:53:00,
2013-10-20 06:03:00,-999.0,-99.9,-100.00,SSW,197,0.7,1.8,-999,-99.99,,,-99.99,HOBO +U30 +Weather +,2013-10-20 11:03:00,
2013-10-20 06:13:00,-999.0,-99.9,-100.00,South,190,0.0,1.8,-999,-99.99,,,-99.99,HOBO +U30 +Weather +,2013-10-20 11:13:00,
2013-10-20 06:14:00,-999.0,-99.9,-100.00,South,183,0.0,2.2,-999,-99.99,,,-99.99,HOBO +U30 +Weather +,2013-10-20 11:14:00,
2013-10-20 06:24:00,-999.0,-99.9,-100.00,SSW,192,0.7,2.9,-999,-99.99,,,-99.99,HOBO +U30 +Weather +,2013-10-20 11:24:00,
2013-10-20 06:34:00,-999.0,-99.9,-100.00,South,188,0.0,0.7,-999,-99.99,,,-99.99,HOBO +U30 +Weather +,2013-10-20 11:34:00,
2013-10-20 06:35:00,-999.0,-99.9,-100.00,South,188,0.0,0.7,-999,-99.99,,,-99.99,HOBO +U30 +Weather +,2013-10-20 11:35:00,
2013-10-20 06:45:00,-999.0,-99.9,-100.00,SSW,192,0.0,1.8,-999,-99.99,,,-99.99,HOBO +U30 +Weather +,2013-10-20 11:45:00,
2013-10-20 06:55:00,-999.0,-99.9,-100.00,SSW,194,0.0,0.0,-999,-99.99,,,-99.99,HOBO +U30 +Weather +,2013-10-20 11:55:00,
2013-10-20 06:56:00,-999.0,-99.9,-100.00,South,184,0.0,1.8,-999,-99.99,,,-99.99,HOBO +U30 +Weather +,2013-10-20 11:56:00,
2013-10-20 07:06:00,-999.0,-99.9,-100.00,South,184,0.0,0.0,-999,-99.99,,,-99.99,HOBO +U30 +Weather +,2013-10-20 12:06:00,
2013-10-20 07:16:00,-999.0,-99.9,-100.00,South,187,0.7,2.2,-999,-99.99,,,-99.99,HOBO +U30 +Weather +,2013-10-20 12:16:00,
2013-10-20 07:17:00,-999.0,-99.9,-100.00,SSW,197,0.7,3.4,-999,-99.99,,,-99.99,HOBO +U30 +Weather +,2013-10-20 12:17:00,
2013-10-20 07:27:00,-999.0,-99.9,-100.00,SSW,212,1.1,4.0,-999,-99.99,,,-99.99,HOBO +U30 +Weather +,2013-10-20 12:27:00,
2013-10-20 07:37:00,-999.0,-99.9,-100.00,SSW,208,0.7,1.8,-999,-99.99,,,-99.99,HOBO +U30 +Weather +,2013-10-20 12:37:00,
2013-10-20 07:38:00,-999.0,-99.9,-100.00,South,188,0.0,1.8,-999,-99.99,,,-99.99,HOBO +U30 +Weather +,2013-10-20 12:38:00,
2013-10-20 07:48:00,-999.0,-99.9,-100.00,South,188,0.0,0.0,-999,-99.99,,,-99.99,HOBO +U30 +Weather +,2013-10-20 12:48:00,
2013-10-20 07:49:00,-999.0,-99.9,-100.00,South,188,0.0,1.1,-999,-99.99,,,-99.99,HOBO +U30 +Weather +,2013-10-20 12:49:00,
2013-10-20 07:59:00,-999.0,-99.9,-100.00,South,187,0.0,0.0,-999,-99.99,,,-99.99,HOBO +U30 +Weather +,2013-10-20 12:59:00,
2013-10-20 08:09:00,-999.0,-99.9,-100.00,SSE,168,0.0,2.2,-999,-99.99,,,-99.99,HOBO +U30 +Weather +,2013-10-20 13:09:00,
2013-10-20 08:10:00,-999.0,-99.9,-100.00,SE,145,1.1,3.4,-999,-99.99,,,-99.99,HOBO +U30 +Weather +,2013-10-20 13:10:00,
2013-10-20 08:20:00,-999.0,-99.9,-100.00,SE,145,0.7,2.9,-999,-99.99,,,-99.99,HOBO +U30 +Weather +,2013-10-20 13:20:00,
2013-10-20 08:21:00,-999.0,-99.9,-100.00,ESE,115,1.1,3.4,-999,-99.99,,,-99.99,HOBO +U30 +Weather +,2013-10-20 13:21:00,
2013-10-20 08:31:00,-999.0,-99.9,-100.00,ESE,117,1.1,2.9,-999,-99.99,,,-99.99,HOBO +U30 +Weather +,2013-10-20 13:31:00,
2013-10-20 08:41:00,-999.0,-99.9,-100.00,SE,140,0.7,4.0,-999,-99.99,,,-99.99,HOBO +U30 +Weather +,2013-10-20 13:41:00,
2013-10-20 08:42:00,-999.0,-99.9,-100.00,SE,138,0.7,2.9,-999,-99.99,,,-99.99,HOBO +U30 +Weather +,2013-10-20 13:42:00,
2013-10-20 08:52:00,-999.0,-99.9,-100.00,SE,135,1.1,4.5,-999,-99.99,,,-99.99,HOBO +U30 +Weather +,2013-10-20 13:52:00,
2013-10-20 08:53:00,-999.0,-99.9,-100.00,SSE,153,2.2,5.1,-999,-99.99,,,-99.99,HOBO +U30 +Weather +,2013-10-20 13:53:00,
2013-10-20 09:03:00,-999.0,-99.9,-100.00,SSE,150,2.2,4.5,-999,-99.99,,,-99.99,HOBO +U30 +Weather +,2013-10-20 14:03:00,
2013-10-20 09:04:00,-999.0,-99.9,-100.00,SSE,153,2.2,5.6,-999,-99.99,,,-99.99,HOBO +U30 +Weather +,2013-10-20 14:04:00,
2013-10-20 09:14:00,-999.0,-99.9,-100.00,SSE,160,3.4,5.1,-999,-99.99,,,-99.99,HOBO +U30 +Weather +,2013-10-20 14:14:00,
2013-10-20 09:15:00,-999.0,-99.9,-100.00,SSE,157,4.0,6.7,-999,-99.99,,,-99.99,HOBO +U30 +Weather +,2013-10-20 14:15:00,
2013-10-20 09:25:00,-999.0,-99.9,-100.00,SE,146,2.9,6.3,-999,-99.99,,,-99.99,HOBO +U30 +Weather +,2013-10-20 14:25:00,
2013-10-20 09:26:00,-999.0,-99.9,-100.00,SSE,150,4.0,8.5,-999,-99.99,,,-99.99,HOBO +U30 +Weather +,2013-10-20 14:26:00,
2013-10-20 09:36:00,-999.0,-99.9,-100.00,SSE,153,4.5,7.8,-999,-99.99,,,-99.99,HOBO +U30 +Weather +,2013-10-20 14:36:00,
2013-10-20 09:46:00,-999.0,-99.9,-100.00,SSE,154,2.9,7.4,-999,-99.99,,,-99.99,HOBO +U30 +Weather +,2013-10-20 14:46:00,
2013-10-20 09:47:00,-999.0,-99.9,-100.00,SE,136,2.9,6.7,-999,-99.99,,,-99.99,HOBO +U30 +Weather +,2013-10-20 14:47:00,
2013-10-20 09:57:00,-999.0,-99.9,-100.00,SSE,149,4.0,7.8,-999,-99.99,,,-99.99,HOBO +U30 +Weather +,2013-10-20 14:57:00,
2013-10-20 10:07:00,-999.0,-99.9,-100.00,SE,126,1.1,4.5,-999,-99.99,,,-99.99,HOBO +U30 +Weather +,2013-10-20 15:07:00,
2013-10-20 10:17:00,-999.0,-99.9,-100.00,SE,142,1.1,5.1,-999,-99.99,,,-99.99,HOBO +U30 +Weather +,2013-10-20 15:17:00,
2013-10-20 10:27:00,-999.0,-99.9,-100.00,SE,140,2.2,4.5,-999,-99.99,,,-99.99,HOBO +U30 +Weather +,2013-10-20 15:27:00,
2013-10-20 10:37:00,-999.0,-99.9,-100.00,SSE,164,3.4,6.7,-999,-99.99,,,-99.99,HOBO +U30 +Weather +,2013-10-20 15:37:00,
2013-10-20 10:47:00,-999.0,-99.9,-100.00,SSE,157,2.2,4.5,-999,-99.99,,,-99.99,HOBO +U30 +Weather +,2013-10-20 15:47:00,
2013-10-20 10:57:00,-999.0,-99.9,-100.00,SSE,156,4.0,8.5,-999,-99.99,,,-99.99,HOBO +U30 +Weather +,2013-10-20 15:57:00,
2013-10-20 11:07:00,-999.0,-99.9,-100.00,SE,143,5.1,10.1,-999,-99.99,,,-99.99,HOBO +U30 +Weather +,2013-10-20 16:07:00,
2013-10-20 11:17:00,-999.0,-99.9,-100.00,SSE,154,3.4,7.4,-999,-99.99,,,-99.99,HOBO +U30 +Weather +,2013-10-20 16:17:00,
2013-10-20 11:27:00,-999.0,-99.9,-100.00,SE,139,3.4,6.7,-999,-99.99,,,-99.99,HOBO +U30 +Weather +,2013-10-20 16:27:00,
2013-10-20 11:37:00,-999.0,-99.9,-100.00,SE,139,2.9,6.3,-999,-99.99,,,-99.99,HOBO +U30 +Weather +,2013-10-20 16:37:00,
2013-10-20 11:38:00,-999.0,-99.9,-100.00,SE,142,4.0,7.8,-999,-99.99,,,-99.99,HOBO +U30 +Weather +,2013-10-20 16:38:00,
2013-10-20 11:48:00,-999.0,-99.9,-100.00,SE,145,4.5,7.8,-999,-99.99,,,-99.99,HOBO +U30 +Weather +,2013-10-20 16:48:00,
2013-10-20 11:49:00,-999.0,-99.9,-100.00,SSE,150,5.1,8.5,-999,-99.99,,,-99.99,HOBO +U30 +Weather +,2013-10-20 16:49:00,
2013-10-20 11:58:00,-999.0,-99.9,-100.00,SE,133,4.0,6.3,-999,-99.99,,,-99.99,HOBO +U30 +Weather +,2013-10-20 16:58:00,
2013-10-20 11:59:00,-999.0,-99.9,-100.00,SSE,153,5.1,8.9,-999,-99.99,,,-99.99,HOBO +U30 +Weather +,2013-10-20 16:59:00,
2013-10-20 12:08:00,-999.0,-99.9,-100.00,ESE,118,4.0,6.7,-999,-99.99,,,-99.99,HOBO +U30 +Weather +,2013-10-20 17:08:00,
2013-10-20 12:18:00,-999.0,-99.9,-100.00,SE,138,2.9,8.5,-999,-99.99,,,-99.99,HOBO +U30 +Weather +,2013-10-20 17:18:00,
2013-10-20 12:19:00,-999.0,-99.9,-100.00,South,175,4.5,7.8,-999,-99.99,,,-99.99,HOBO +U30 +Weather +,2013-10-20 17:19:00,
2013-10-20 12:29:00,-999.0,-99.9,-100.00,SSE,168,4.0,6.3,-999,-99.99,,,-99.99,HOBO +U30 +Weather +,2013-10-20 17:29:00,
2013-10-20 12:39:00,-999.0,-99.9,-100.00,SSE,152,5.1,8.5,-999,-99.99,,,-99.99,HOBO +U30 +Weather +,2013-10-20 17:39:00,
2013-10-20 12:40:00,-999.0,-99.9,-100.00,ESE,122,2.9,7.8,-999,-99.99,,,-99.99,HOBO +U30 +Weather +,2013-10-20 17:40:00,
2013-10-20 12:50:00,-999.0,-99.9,-100.00,SSE,160,0.7,3.4,-999,-99.99,,,-99.99,HOBO +U30 +Weather +,2013-10-20 17:50:00,
2013-10-20 13:00:00,-999.0,-99.9,-100.00,SE,136,0.7,5.1,-999,-99.99,,,-99.99,HOBO +U30 +Weather +,2013-10-20 18:00:00,
2013-10-20 13:10:00,-999.0,-99.9,-100.00,SE,143,5.1,8.9,-999,-99.99,,,-99.99,HOBO +U30 +Weather +,2013-10-20 18:10:00,
2013-10-20 13:11:00,-999.0,-99.9,-100.00,SE,143,4.0,6.7,-999,-99.99,,,-99.99,HOBO +U30 +Weather +,2013-10-20 18:11:00,
2013-10-20 13:21:00,-999.0,-99.9,-100.00,SE,139,1.8,5.1,-999,-99.99,,,-99.99,HOBO +U30 +Weather +,2013-10-20 18:21:00,
2013-10-20 13:31:00,-999.0,-99.9,-100.00,SSE,149,3.4,5.1,-999,-99.99,,,-99.99,HOBO +U30 +Weather +,2013-10-20 18:31:00,
2013-10-20 13:32:00,-999.0,-99.9,-100.00,SSE,164,6.3,11.2,-999,-99.99,,,-99.99,HOBO +U30 +Weather +,2013-10-20 18:32:00,
2013-10-20 13:42:00,-999.0,-99.9,-100.00,SSE,150,7.4,10.1,-999,-99.99,,,-99.99,HOBO +U30 +Weather +,2013-10-20 18:42:00,
2013-10-20 13:52:00,-999.0,-99.9,-100.00,SSE,157,4.5,7.4,-999,-99.99,,,-99.99,HOBO +U30 +Weather +,2013-10-20 18:52:00,
2013-10-20 13:53:00,-999.0,-99.9,-100.00,SSE,157,7.4,11.9,-999,-99.99,,,-99.99,HOBO +U30 +Weather +,2013-10-20 18:53:00,
2013-10-20 14:03:00,-999.0,-99.9,-100.00,SSE,157,6.3,10.1,-999,-99.99,,,-99.99,HOBO +U30 +Weather +,2013-10-20 19:03:00,
2013-10-20 14:04:00,-999.0,-99.9,-100.00,SSE,168,6.7,9.6,-999,-99.99,,,-99.99,HOBO +U30 +Weather +,2013-10-20 19:04:00,
2013-10-20 14:14:00,-999.0,-99.9,-100.00,SSE,166,4.0,7.8,-999,-99.99,,,-99.99,HOBO +U30 +Weather +,2013-10-20 19:14:00,
2013-10-20 14:24:00,-999.0,-99.9,-100.00,SSE,164,5.6,8.9,-999,-99.99,,,-99.99,HOBO +U30 +Weather +,2013-10-20 19:24:00,
2013-10-20 14:25:00,-999.0,-99.9,-100.00,South,173,5.6,8.5,-999,-99.99,,,-99.99,HOBO +U30 +Weather +,2013-10-20 19:25:00,
2013-10-20 14:35:00,-999.0,-99.9,-100.00,South,188,5.6,8.5,-999,-99.99,,,-99.99,HOBO +U30 +Weather +,2013-10-20 19:35:00,
2013-10-20 14:46:00,-999.0,-99.9,-100.00,South,173,5.6,11.9,-999,-99.99,,,-99.99,HOBO +U30 +Weather +,2013-10-20 19:46:00,
2013-10-20 14:56:00,-999.0,-99.9,-100.00,South,184,4.0,6.7,-999,-99.99,,,-99.99,HOBO +U30 +Weather +,2013-10-20 19:56:00,
2013-10-20 14:57:00,-999.0,-99.9,-100.00,SSW,213,5.1,8.9,-999,-99.99,,,-99.99,HOBO +U30 +Weather +,2013-10-20 19:57:00,
2013-10-20 15:07:00,-999.0,-99.9,-100.00,South,187,5.6,10.1,-999,-99.99,,,-99.99,HOBO +U30 +Weather +,2013-10-20 20:07:00,
2013-10-20 15:08:00,-999.0,-99.9,-100.00,SSW,198,5.1,8.9,-999,-99.99,,,-99.99,HOBO +U30 +Weather +,2013-10-20 20:08:00,
2013-10-20 15:18:00,-999.0,-99.9,-100.00,SSW,198,4.5,8.5,-999,-99.99,,,-99.99,HOBO +U30 +Weather +,2013-10-20 20:18:00,
2013-10-20 15:28:00,-999.0,-99.9,-100.00,South,181,5.1,8.5,-999,-99.99,,,-99.99,HOBO +U30 +Weather +,2013-10-20 20:28:00,
2013-10-20 15:29:00,-999.0,-99.9,-100.00,South,181,3.4,6.7,-999,-99.99,,,-99.99,HOBO +U30 +Weather +,2013-10-20 20:29:00,
2013-10-20 15:39:00,-999.0,-99.9,-100.00,South,184,1.8,4.5,-999,-99.99,,,-99.99,HOBO +U30 +Weather +,2013-10-20 20:39:00,
2013-10-20 15:40:00,-999.0,-99.9,-100.00,South,185,4.0,6.7,-999,-99.99,,,-99.99,HOBO +U30 +Weather +,2013-10-20 20:40:00,
2013-10-20 15:50:00,-999.0,-99.9,-100.00,South,191,5.1,7.4,-999,-99.99,,,-99.99,HOBO +U30 +Weather +,2013-10-20 20:50:00,
2013-10-20 15:51:00,-999.0,-99.9,-100.00,SW,232,4.0,7.4,-999,-99.99,,,-99.99,HOBO +U30 +Weather +,2013-10-20 20:51:00,
2013-10-20 16:01:00,-999.0,-99.9,-100.00,WSW,244,3.4,8.5,-999,-99.99,,,-99.99,HOBO +U30 +Weather +,2013-10-20 21:01:00,
2013-10-20 16:02:00,-999.0,-99.9,-100.00,SW,233,5.1,7.8,-999,-99.99,,,-99.99,HOBO +U30 +Weather +,2013-10-20 21:02:00,
2013-10-20 16:12:00,-999.0,-99.9,-100.00,WSW,247,4.5,7.8,-999,-99.99,,,-99.99,HOBO +U30 +Weather +,2013-10-20 21:12:00,
2013-10-20 16:13:00,-999.0,-99.9,-100.00,SW,234,5.1,7.8,-999,-99.99,,,-99.99,HOBO +U30 +Weather +,2013-10-20 21:13:00,
2013-10-20 16:23:00,-999.0,-99.9,-100.00,WSW,244,5.1,7.8,-999,-99.99,,,-99.99,HOBO +U30 +Weather +,2013-10-20 21:23:00,
2013-10-20 16:33:00,-999.0,-99.9,-100.00,SSW,209,4.0,8.5,-999,-99.99,,,-99.99,HOBO +U30 +Weather +,2013-10-20 21:33:00,
2013-10-20 16:43:00,-999.0,-99.9,-100.00,SW,216,4.5,7.8,-999,-99.99,,,-99.99,HOBO +U30 +Weather +,2013-10-20 21:43:00,
2013-10-20 16:44:00,-999.0,-99.9,-100.00,SSW,202,5.6,8.9,-999,-99.99,,,-99.99,HOBO +U30 +Weather +,2013-10-20 21:44:00,
2013-10-20 16:53:00,-999.0,-99.9,-100.00,SW,229,3.4,7.8,-999,-99.99,,,-99.99,HOBO +U30 +Weather +,2013-10-20 21:53:00,
2013-10-20 16:54:00,-999.0,-99.9,-100.00,SW,215,2.9,6.7,-999,-99.99,,,-99.99,HOBO +U30 +Weather +,2013-10-20 21:54:00,
2013-10-20 17:03:00,-999.0,-99.9,-100.00,SSW,204,2.9,6.3,-999,-99.99,,,-99.99,HOBO +U30 +Weather +,2013-10-20 22:03:00,
2013-10-20 17:04:00,-999.0,-99.9,-100.00,SW,223,4.0,8.5,-999,-99.99,,,-99.99,HOBO +U30 +Weather +,2013-10-20 22:04:00,
2013-10-20 17:13:00,-999.0,-99.9,-100.00,SSW,198,2.2,6.7,-999,-99.99,,,-99.99,HOBO +U30 +Weather +,2013-10-20 22:13:00,
2013-10-20 17:14:00,-999.0,-99.9,-100.00,WSW,243,2.9,5.6,-999,-99.99,,,-99.99,HOBO +U30 +Weather +,2013-10-20 22:14:00,
2013-10-20 17:23:00,-999.0,-99.9,-100.00,SSW,205,2.2,4.0,-999,-99.99,,,-99.99,HOBO +U30 +Weather +,2013-10-20 22:23:00,
2013-10-20 17:33:00,-999.0,-99.9,-100.00,SW,226,1.8,4.5,-999,-99.99,,,-99.99,HOBO +U30 +Weather +,2013-10-20 22:33:00,
2013-10-20 17:43:00,-999.0,-99.9,-100.00,South,187,3.4,6.3,-999,-99.99,,,-99.99,HOBO +U30 +Weather +,2013-10-20 22:43:00,
2013-10-20 17:53:00,-999.0,-99.9,-100.00,SSW,194,1.1,4.5,-999,-99.99,,,-99.99,HOBO +U30 +Weather +,2013-10-20 22:53:00,
2013-10-20 17:54:00,-999.0,-99.9,-100.00,South,184,4.5,7.4,-999,-99.99,,,-99.99,HOBO +U30 +Weather +,2013-10-20 22:54:00,
2013-10-20 18:03:00,-999.0,-99.9,-100.00,SSW,205,3.4,6.7,-999,-99.99,,,-99.99,HOBO +U30 +Weather +,2013-10-20 23:03:00,
2013-10-20 18:04:00,-999.0,-99.9,-100.00,SSW,204,2.2,6.3,-999,-99.99,,,-99.99,HOBO +U30 +Weather +,2013-10-20 23:04:00,
2013-10-20 18:13:00,-999.0,-99.9,-100.00,SW,220,4.5,8.9,-999,-99.99,,,-99.99,HOBO +U30 +Weather +,2013-10-20 23:13:00,
2013-10-20 18:14:00,-999.0,-99.9,-100.00,SSW,202,3.4,5.6,-999,-99.99,,,-99.99,HOBO +U30 +Weather +,2013-10-20 23:14:00,
2013-10-20 18:24:00,-999.0,-99.9,-100.00,WSW,239,2.2,4.5,-999,-99.99,,,-99.99,HOBO +U30 +Weather +,2013-10-20 23:24:00,
2013-10-20 18:34:00,-999.0,-99.9,-100.00,WSW,237,4.0,8.9,-999,-99.99,,,-99.99,HOBO +U30 +Weather +,2013-10-20 23:34:00,
2013-10-20 18:44:00,-999.0,-99.9,-100.00,WSW,244,5.6,8.9,-999,-99.99,,,-99.99,HOBO +U30 +Weather +,2013-10-20 23:44:00,
2013-10-20 18:45:00,-999.0,-99.9,-100.00,WSW,251,9.6,13.0,-999,-99.99,,,-99.99,HOBO +U30 +Weather +,2013-10-20 23:45:00,
2013-10-20 18:55:00,-999.0,-99.9,-100.00,WSW,253,9.6,12.3,-999,-99.99,,,-99.99,HOBO +U30 +Weather +,2013-10-20 23:55:00,
2013-10-20 19:05:00,-999.0,-99.9,-100.00,West,264,11.9,15.9,-999,-99.99,,,-99.99,HOBO +U30 +Weather +,2013-10-21 00:05:00,
2013-10-20 19:15:00,-999.0,-99.9,-100.00,West,275,9.6,15.2,-999,-99.99,,,-99.99,HOBO +U30 +Weather +,2013-10-21 00:15:00,
2013-10-20 19:16:00,-999.0,-99.9,-100.00,West,271,11.2,14.5,-999,-99.99,,,-99.99,HOBO +U30 +Weather +,2013-10-21 00:16:00,
2013-10-20 19:26:00,-999.0,-99.9,-100.00,West,274,10.1,13.4,-999,-99.99,,,-99.99,HOBO +U30 +Weather +,2013-10-21 00:26:00,
2013-10-20 19:36:00,-999.0,-99.9,-100.00,West,271,15.2,22.6,-999,-99.99,,,-99.99,HOBO +U30 +Weather +,2013-10-21 00:36:00,
2013-10-20 19:37:00,-999.0,-99.9,-100.00,West,274,9.6,13.0,-999,-99.99,,,-99.99,HOBO +U30 +Weather +,2013-10-21 00:37:00,
2013-10-20 19:47:00,-999.0,-99.9,-100.00,West,279,12.3,16.3,-999,-99.99,,,-99.99,HOBO +U30 +Weather +,2013-10-21 00:47:00,
2013-10-20 19:57:00,-999.0,-99.9,-100.00,West,275,10.1,14.1,-999,-99.99,,,-99.99,HOBO +U30 +Weather +,2013-10-21 00:57:00,
2013-10-20 19:58:00,-999.0,-99.9,-100.00,WNW,284,15.9,20.8,-999,-99.99,,,-99.99,HOBO +U30 +Weather +,2013-10-21 00:58:00,
2013-10-20 20:08:00,-999.0,-99.9,-100.00,WNW,282,15.9,20.8,-999,-99.99,,,-99.99,HOBO +U30 +Weather +,2013-10-21 01:08:00,
2013-10-20 20:18:00,-999.0,-99.9,-100.00,WNW,289,14.1,19.2,-999,-99.99,,,-99.99,HOBO +U30 +Weather +,2013-10-21 01:18:00,
2013-10-20 20:19:00,-999.0,-99.9,-100.00,WNW,288,13.0,20.4,-999,-99.99,,,-99.99,HOBO +U30 +Weather +,2013-10-21 01:19:00,
2013-10-20 20:29:00,-999.0,-99.9,-100.00,WNW,286,12.3,17.0,-999,-99.99,,,-99.99,HOBO +U30 +Weather +,2013-10-21 01:29:00,
2013-10-20 20:39:00,-999.0,-99.9,-100.00,WNW,303,16.3,20.4,-999,-99.99,,,-99.99,HOBO +U30 +Weather +,2013-10-21 01:39:00,
2013-10-20 20:40:00,-999.0,-99.9,-100.00,WNW,295,14.1,19.7,-999,-99.99,,,-99.99,HOBO +U30 +Weather +,2013-10-21 01:40:00,
2013-10-20 20:50:00,-999.0,-99.9,-100.00,WNW,293,10.1,13.0,-999,-99.99,,,-99.99,HOBO +U30 +Weather +,2013-10-21 01:50:00,
2013-10-20 20:51:00,-999.0,-99.9,-100.00,WNW,300,13.4,18.6,-999,-99.99,,,-99.99,HOBO +U30 +Weather +,2013-10-21 01:51:00,
2013-10-20 21:01:00,-999.0,-99.9,-100.00,WNW,289,13.0,17.0,-999,-99.99,,,-99.99,HOBO +U30 +Weather +,2013-10-21 02:01:00,
2013-10-20 21:11:00,-999.0,-99.9,-100.00,NW,309,15.2,19.2,-999,-99.99,,,-99.99,HOBO +U30 +Weather +,2013-10-21 02:11:00,
2013-10-20 21:12:00,-999.0,-99.9,-100.00,WNW,299,11.9,17.0,-999,-99.99,,,-99.99,HOBO +U30 +Weather +,2013-10-21 02:12:00,
2013-10-20 21:22:00,-999.0,-99.9,-100.00,WNW,293,10.7,17.4,-999,-99.99,,,-99.99,HOBO +U30 +Weather +,2013-10-21 02:22:00,
2013-10-20 21:23:00,-999.0,-99.9,-100.00,WNW,302,13.0,17.0,-999,-99.99,,,-99.99,HOBO +U30 +Weather +,2013-10-21 02:23:00,
2013-10-20 21:33:00,-999.0,-99.9,-100.00,NW,305,14.1,20.4,-999,-99.99,,,-99.99,HOBO +U30 +Weather +,2013-10-21 02:33:00,
2013-10-20 21:43:00,-999.0,-99.9,-100.00,NW,316,12.3,17.0,-999,-99.99,,,-99.99,HOBO +U30 +Weather +,2013-10-21 02:43:00,
2013-10-20 21:44:00,-999.0,-99.9,-100.00,WNW,303,13.0,18.6,-999,-99.99,,,-99.99,HOBO +U30 +Weather +,2013-10-21 02:44:00,
2013-10-20 21:54:00,-999.0,-99.9,-100.00,NW,307,11.9,15.9,-999,-99.99,,,-99.99,HOBO +U30 +Weather +,2013-10-21 02:54:00,
2013-10-20 21:55:00,-999.0,-99.9,-100.00,WNW,303,11.9,14.5,-999,-99.99,,,-99.99,HOBO +U30 +Weather +,2013-10-21 02:55:00,
2013-10-20 22:05:00,-999.0,-99.9,-100.00,NW,309,13.0,19.7,-999,-99.99,,,-99.99,HOBO +U30 +Weather +,2013-10-21 03:05:00,
2013-10-20 22:06:00,-999.0,-99.9,-100.00,WNW,303,14.1,18.1,-999,-99.99,,,-99.99,HOBO +U30 +Weather +,2013-10-21 03:06:00,
2013-10-20 22:16:00,-999.0,-99.9,-100.00,WNW,295,17.0,20.8,-999,-99.99,,,-99.99,HOBO +U30 +Weather +,2013-10-21 03:16:00,
2013-10-20 22:26:00,-999.0,-99.9,-100.00,WNW,300,11.2,14.5,-999,-99.99,,,-99.99,HOBO +U30 +Weather +,2013-10-21 03:26:00,
2013-10-20 22:27:00,-999.0,-99.9,-100.00,NW,307,13.0,17.4,-999,-99.99,,,-99.99,HOBO +U30 +Weather +,2013-10-21 03:27:00,
2013-10-20 22:37:00,-999.0,-99.9,-100.00,NW,307,12.3,15.9,-999,-99.99,,,-99.99,HOBO +U30 +Weather +,2013-10-21 03:37:00,
2013-10-20 22:38:00,-999.0,-99.9,-100.00,WNW,302,13.4,19.2,-999,-99.99,,,-99.99,HOBO +U30 +Weather +,2013-10-21 03:38:00,
2013-10-20 22:48:00,-999.0,-99.9,-100.00,WNW,300,11.2,15.2,-999,-99.99,,,-99.99,HOBO +U30 +Weather +,2013-10-21 03:48:00,
2013-10-20 22:49:00,-999.0,-99.9,-100.00,WNW,302,11.2,15.9,-999,-99.99,,,-99.99,HOBO +U30 +Weather +,2013-10-21 03:49:00,
2013-10-20 22:59:00,-999.0,-99.9,-100.00,WNW,300,10.1,13.0,-999,-99.99,,,-99.99,HOBO +U30 +Weather +,2013-10-21 03:59:00,
2013-10-20 23:09:00,-999.0,-99.9,-100.00,NW,307,14.1,18.1,-999,-99.99,,,-99.99,HOBO +U30 +Weather +,2013-10-21 04:09:00,
2013-10-20 23:19:00,-999.0,-99.9,-100.00,NW,307,10.1,13.0,-999,-99.99,,,-99.99,HOBO +U30 +Weather +,2013-10-21 04:19:00,
2013-10-20 23:29:00,-999.0,-99.9,-100.00,NW,312,9.6,14.5,-999,-99.99,,,-99.99,HOBO +U30 +Weather +,2013-10-21 04:29:00,
2013-10-20 23:39:00,-999.0,-99.9,-100.00,NW,312,11.2,16.3,-999,-99.99,,,-99.99,HOBO +U30 +Weather +,2013-10-21 04:39:00,
2013-10-20 23:49:00,-999.0,-99.9,-100.00,NW,326,9.6,13.0,-999,-99.99,,,-99.99,HOBO +U30 +Weather +,2013-10-21 04:49:00,
2013-10-20 23:59:00,-999.0,-99.9,-100.00,NW,305,10.7,15.2,-999,-99.99,,,-99.99,HOBO +U30 +Weather +,2013-10-21 04:59:00,